Regional Weather Roundup
Issued by NWS Northern Indiana

Home | Current Version | Previous Version | Graphics & Text | Print | Product List | Glossary On
Versions: 1 2 3 4 5 6 7 8 9 10 11 12 13 14 15 16 17 18 19 20 21 22 23 24 25 26 27 28 29 30 31 32 33 34 35 36 37 38 39 40 41 42 43 44 45 46 47 48 49 50
000
ASUS43 KIWX 271600
RWRIWX

KIWX WEATHER ROUNDUP
NATIONAL WEATHER SERVICE NORTHERN INDIANA
1200 PM EDT FRI MAR 27 2015

NOTE: "FAIR" INDICATES FEW OR NO CLOUDS BELOW 12,000 FEET WITH NO
SIGNIFICANT WEATHER AND/OR OBSTRUCTIONS TO VISIBILITY.

* THESE STATIONS ARE NOT UNDER NWS QUALITY CONTROL. THEY ALSO MAY NOT
  REPORT WEATHER SUCH AS PRECIPITATION OR FOG.

INZ001>027-271700-
NORTHERN INDIANA

CITY           SKY/WX    TMP DP  RH WIND       PRES   REMARKS
GARY*          PTSUNNY   30   9  40 N20       30.16R WCI  18
SOUTH BEND     CLOUDY    27  16  63 N21       30.10S HAZE    WCI  13
ELKHART*       CLOUDY    28   5  37 NW9G18    30.09S WCI  20
GOSHEN         CLOUDY    27  10  49 N15       30.07S WCI  15
ANGOLA*        PTSUNNY   25  10  54 N12       30.03S WCI  14
FORT WAYNE     CLOUDY    28  14  55 NW16G28   30.05F WCI  16

$$
INZ028>050-271700-
CENTRAL INDIANA

CITY           SKY/WX    TMP DP  RH WIND       PRES   REMARKS
LAFAYETTE      LGT SNOW  28  19  69 N13       30.12R WCI  17
KOKOMO*          N/A     28  14  54 N14G21    30.08S WCI  17
MUNCIE*        CLOUDY    31  18  58 N12       30.05S WCI  22
INDIANAPOLIS   FLURRIES  32  17  54 N12       30.06R WCI  23

$$
MIZ043>046-050>051-056>058-064>065-071>073-077>080-271700-
SOUTHWEST LOWER MICHIGAN

CITY           SKY/WX    TMP DP  RH WIND       PRES   REMARKS
BATTLE CREEK   SUNNY     27  -1  30 N18G24    30.05F WCI  14
BENTON HARBOR  SUNNY     25   6  44 NE15G26   30.12R WCI  13
COLDWATER*     CLOUDY    23   7  48 N15G21    30.05R WCI  10
HILLSDALE*     CLOUDY    24   9  51 NW14      30.01S WCI  12
HOLLAND        SUNNY     27   2  34 N13G22    30.12S WCI  16
GRAND RAPIDS   MOSUNNY   25   1  35 NW13      30.09S WCI  14
KALAMAZOO      MOSUNNY   27   1  32 N20G25    30.08S WCI  13
STURGIS*       CLOUDY    25   7  46 NW16G25   30.05S WCI  12
THREE RIVERS*  FAIR      27   5  38 N16G23    30.07S WCI  15

$$
OHZ001>008-015>018-024>025-271700-
NORTHWEST OHIO

CITY           SKY/WX    TMP DP  RH WIND       PRES   REMARKS
DEFIANCE       CLOUDY    27  12  53 NW14      30.05S WCI  16
FINDLAY        CLOUDY    28  14  55 N16       30.01R WCI  16
TOLEDO EXPRESS CLOUDY    25  11  55 NW14      30.02F WCI  13
TOLEDO METCALF CLOUDY    27  12  53 NW10      30.03S WCI  17
LIMA           CLOUDY    29  17  61 NW15G22   30.01R WCI  18

$$
AND FOR LAKE MICHIGAN COASTAL AND OPEN LAKE BUOY OBSERVATIONS

STATION/POSITION TEMP    WIND        PRES    VSBY  WAVE
                 AIR SEA DIR/SP/G                  HT/PER
                 (F)     (DEG/KT/KT) (MB)    (MI)  (FT/S)
CALUMET HARBOR    26     320/ 13/ 24 1020.1R
MICHIGAN CITY     26     320/ 22/ 25   N/A
BURNS HARBOR      27     360/ 19/ 23 1021.0S
SAINT JOSEPH      25     360/ 13/ 23 1020.3S

$$
&&



USA.gov is the U.S. government's official web portal to all federal, state and local government web resources and services.